Location: Hillern
(53.0557°N, 9.8577°E)
Time: 19:12:51
(UTC+00:00)

BlueWalker 3 - Pass Details

Date: 19 May 2025
Orbit: 460 x 472 km, 53.2° (Epoch: 20 June)

Event Time Altitude Azimuth Distance (km) Brightness Sun altitude
Rises 21:04:17 0° 285° (WNW) 2,496 6.3 -11.5°
Reaches altitude 10° 21:06:37 10° 273° (W) 1,620 5.0 -11.7°
Maximum altitude 21:09:45 27° 214° (SW) 922 3.0 -11.9°
Enters shadow 21:11:32 18° 170° (S) 1,195 3.3 -12.1°
